Regional Weather Roundup
Issued by NWS Upton, NY

Home | Current Version | Previous Version | Text Only | Print | Product List | Glossary On
Versions: 1 2 3 4 5 6 7 8 9 10 11 12 13 14 15 16 17 18 19 20 21 22 23 24 25 26 27 28 29 30 31 32 33 34 35 36 37 38 39 40 41 42 43 44 45 46 47 48 49 50
000
ASUS41 KOKX 240105
RWROKX
REGIONAL WEATHER ROUNDUP
NATIONAL WEATHER SERVICE NEW YORK NY
900 PM EDT WED JUL 23 2014

NOTE: "FAIR" INDICATES FEW OR NO CLOUDS BELOW 12,000 FEET WITH NO
SIGNIFICANT WEATHER AND/OR OBSTRUCTIONS TO VISIBILITY.

NYZ071-072-176-178-NJZ106-104-240200-
NEW YORK CITY METRO AREA


CITY           SKY/WX    TMP DP  RH WIND       PRES   REMARKS
CENTRAL PARK   HVY RAIN  76  70  82 VRB5G25   29.86R VSB 1
LAGUARDIA APRT CLOUDY    85  71  63 SW12G20   29.80R THUNDER HX  90
KENNEDY INTL   MOCLDY    77  71  82 S18       29.82R THUNDER
NEWARK/LIBERTY TSTM      76  69  79 CALM      29.80R
BRNX BOT. GARD   N/A     81  72  74 S15       29.83R
TETERBORO      TSTM      88  69  53 SW15      29.79R HX  92
$$

NYZ177-179-078>081-240200-
LONG ISLAND NEW YORK

CITY           SKY/WX    TMP DP  RH WIND       PRES   REMARKS
FARMINGDALE    MOCLDY    76  68  76 SW14G21   29.81S
ISLIP          MOCLDY    77  67  71 SW14      29.80S
SHIRLEY        PTCLDY    75  68  78 SW9       29.83R
WESTHAMPTON    CLEAR     73  68  84 SW9       29.84S
MONTAUK POINT    N/A     73  69  87 S8        29.84S
$$

NYZ052-065-067-240200-
HUDSON VALLEY

CITY           SKY/WX    TMP DP  RH WIND       PRES   REMARKS
WHITE PLAINS   TSTM      73  70  88 CALM      29.81R
NEWBURGH       MOCLDY    72  70  94 W8        29.83
MONTGOMERY     CLOUDY    72  70  93 SW3       29.82R
POUGHKEEPSIE   TSTM      72  70  93 SE3       29.80R
ALBANY         LGT RAIN  71  66  84 W10       29.82R
$$

NJZ001-105-106-008-010-013-015-019>022-104-240200-
NEW JERSEY

CITY           SKY/WX    TMP DP  RH WIND       PRES   REMARKS
NEWARK/LIBERTY TSTM      76  69  79 CALM      29.80R
TETERBORO      TSTM      88  69  53 SW15      29.79R HX  92
CALDWELL       LGT RAIN  79  71  76 VRB3      29.81R
MORRISTOWN     MOCLDY    77  72  83 W8        29.81R
SOMERVILLE     LGT RAIN  74  71  91 S3        29.81R
LINDEN         TSTM      77  70  78 CALM      29.83R
SUSSEX         CLOUDY    80  66  62 VRB5      29.85R
ANDOVER          N/A     78  69  73 VRB5      29.86R
TRENTON        TSTM      73  68  84 SW5       29.85R
MILLVILLE      MOCLDY    78  73  84 CALM      29.85R
ATLANTIC CITY  MOCLDY    77  72  84 S7        29.85R
WRIGHTSTOWN    CLOUDY    80  73  77 W10       29.85R
TOMS RIVER     MOCLDY    77  70  78 S5        29.85R
BELMAR         MOCLDY    79  68  69 SW8       29.83R
$$

PAZ047>061-062-071-240200-
EASTERN PENNSYLVANIA

CITY           SKY/WX    TMP DP  RH WIND       PRES   REMARKS
PHILADELPHIA   TSTM      76  68  76 W13       29.88R
ALLENTOWN      TSTM      75  70  84 W7        29.87R
SCRANTON       CLOUDY    74  66  76 N10G17    29.90R
$$

CTZ002-004>006-009-010-012-RIZ004-006-007-MAZ004-011-015-240200-
SOUTHERN NEW ENGLAND
 IN CT

CITY           SKY/WX    TMP DP  RH WIND       PRES   REMARKS
BRADLEY INTL   TSTM      81  68  64 NW13G24   29.82R
HARTFORD       MOCLDY    79  69  71 S7        29.79R
DANBURY        MOCLDY    78  69  73 VRB5      29.81R
WTRBRY/OXFORD  PTCLDY    75  68  78 S7        29.83S
BRIDGEPORT     PTCLDY    78  69  73 SW7       29.80S
MERIDEN        MOCLDY    78  69  73 S8        29.80R
NEW HAVEN      PTCLDY    79  69  71 SW5       29.81R
CHESTER        FAIR      75  68  78 SW7       29.84R
GROTON         PTCLDY    71  67  87 CALM      29.83R
WILLIMANTIC    MOCLDY    77  69  76 S6        29.82R

 IN RI

CITY           SKY/WX    TMP DP  RH WIND       PRES   REMARKS
PROVIDENCE     MOCLDY    75  66  73 SW10      29.83R
BLOCK ISLAND   PTCLDY    72  66  83 SW13      29.84R
WESTERLY       MOCLDY    74  67  78 SW8       29.85R

 IN MA

CITY           SKY/WX    TMP DP  RH WIND       PRES   REMARKS
BOSTON         MOCLDY    78  68  71 SW15      29.78R
WORCESTER      CLOUDY    76  70  82 SW10      29.83R
WESTFIELD      TSTM      72  69  90 E3        29.85R FOG
PROVINCETOWN   PTCLDY    70  66  88 SW14      29.82R
NANTUCKET      CLEAR     69  67  93 SW10      29.86R
$$

ANZ330-335-338-340-345-350-353-355-240200-
COASTAL MARINE OBSERVATIONS


STATION/POSITION TIME  SKY/WX   TEMP    WIND        PRES    VSBY  WAVE
                                AIR SEA DIR/SP/G                  HT/PER
                 (UTC)          (F)     (DEG/KT/KT) (MB)    (MI)  (FT/S)
NY HARB ENTRANCE NOT AVBL
4S FIRE IS       NOT AVBL
23SW MTP         0100            72 71              1009.5          3/ 5
HUDSON CANYON    0100            75 74  210/ 12/ 14 1011.1          2/ 4
EXECUTION ROCKS  0100            78 72  190/ 12/ 16   N/A
WESTERN LI SOUND 0100            77     180/ 10/ 12   N/A           1/ 2
CENTRAL LI SOUND 0100            76 74  210/ 16/ 19   N/A           2/ 4
EASTERN LI SOUND 0000            71 67  200/  2/  4   N/A
ROBBINS REEF     0100            81     290/ 20/ 26   N/A
$$


>>>>>>>>>>>>>>>>>>>>>>>>>>>> KEY <<<<<<<<<<<<<<<<<<<<<<<<<<<
>                                                          <
>     SKY/WX - SKY CONDITION/PRESENT WEATHER               <
>     TMP    - TEMPERATURE IN FAHRENHEIT                   <
>     DP     - DEWPOINT IN FAHRENHEIT                      <
>     RH     - RELATIVE HUMIDITY IN PERCENT                <
>     WIND   - DIRECTION AND SPEED IN MPH                  <
>     PRES   - MEAN SEA LEVEL PRESSURE IN INCHES OF HG     <
>     WCI    - WIND CHILL INDEX                            <
>     VSB    - VISIBILITY IN MILES                         <
>     HX     - HEAT INDEX                                  <
>     TC     - TEMPERATURE IN CELSIUS                      <
>     VRB    - VARIABLE WIND DIRECTION                     <
>                                                          <
>>>>>>>>>>>>>>>>>>>>>>>>>>>> KEY <<<<<<<<<<<<<<<<<<<<<<<<<<<




USA.gov is the U.S. government's official web portal to all federal, state and local government web resources and services.